www.pogodaiklimat.ru

Погода и климат >> Архив погоды >> Китай >> Гирин >> Чанбай


ПОГОДА в Чанбае

  • Прогноз погоды в Чанбае
  • Монитор погоды в Чанбае

АРХИВ ПОГОДЫ в Чанбае

Время (UTC), дата Ветер
(напр.,м/с)
 
Видим.   Явления Облачность Т
(С)
Тd
(С)
f
(%)
Тe
(С)
Тes
(С)
Комфортность P
(гПа)
Po
(гПа)
Тmin
(С)
Tmax
(С)
R
(мм)
R24
(мм)
S
(см)
18 14.05 СВ 2 30 км ?/? +4.1 -1.2 68 +2 +2 1013.5 894.0 +23.6
21 14.05 СВ 2 30 км н/о +1.9 -0.7 83 -1 -1 1015.5 894.8
00 15.05 Ю 1 20 км ясно +10.8 -1.2 43 +11 +22 опасность
простуды
1014.6 897.6
03 15.05 З 1 20 км 8/8
[]
+21.3 -5.5 16 +20 +25 1010.7 898.1
06 15.05 Ю 2 19 км 5/5
[]
+25.1 -7.4 11 +22 +29 комфорт 1007.6 919.4 +1.9
09 15.05 Ю 1 20 км 5/5
[]
+24.1 -8.1 11 +22 +23 комфорт 1007.1 895.9
12 15.05 штиль 0 29 км 6/6
[]
+16.5 -0.6 31 +17 +17 1008.4 894.3
18 15.05 СВ 2 30 км ?/? +8.7 -0.5 52 +7 +7 1009.0 891.8 +25.8
21 15.05 С 1 30 км н/о +7.8 -0.1 57 +7 +7 1010.8 893.1
00 16.05 СВ 1 19 км слаб. ливневой дождь 9/9 600 м
[]
+8.3 +7.2 93 +7 +9 1012.1 894.4 0.4
03 16.05 Ю 1 14 км {ливн. осадки} 9/9 600 м
[]
+13.6 +7.6 67 +14 +16 1011.5 895.9
06 16.05 Ю 3 16 км {ливн. осадки} 3/3 600 м
[]
+21.3 +6.8 39 +22 +30 комфорт 1007.7 895.4 +6.7 0.0
09 16.05 З 3 16 км 3/3 600 м
[]
+22.6 +7.6 38 +24 +25 комфорт 1006.8 895.1
12 16.05 З 3 22 км 4/4 600 м
[]
+18.8 +8.2 50 +19 +19 1010.1 896.6
18 16.05 С 2 21 км ?/? +8.3 +8.2 99 +6 +6 1011.5 893.9 +23.5
21 16.05 СВ 2 8000 м н/о +6.8 +6.7 99 +4 +4 1013.2 894.8
00 17.05 З 1 12 км 4/4
[]
+14.2 +8.2 67 +15 +22 1012.2 896.8
03 17.05 Ю 3 18 км 5/5
[]
+23.5 +6.3 33 +24 +32 комфорт 1009.3 897.6
06 17.05 З 2 15 км 8/8
[]
+27.9 +2.9 20 +26 +29 жарко 1006.5 896.7 +6.4
09 17.05 ЮЗ 3 14 км 8/8
[]
+25.5 +7.6 32 +26 +26 жарко 1007.5 896.7
12 17.05 В 2 27 км 3/3
[]
+19.9 +7.9 46 +21 +21 комфорт 1010.0 896.9
18 17.05 С 2 26 км ?/? +9.8 +8.7 93 +8 +8 1012.2 895.1 +28.0
21 17.05 СВ 1 20 км н/о +7.9 +7.3 96 +7 +7 1014.0 895.9
00 18.05 З 2 12 км ясно +15.5 +8.7 64 +15 +25 1012.8 897.8
03 18.05 З 1 15 км ясно +24.5 +3.7 26 +24 +46 комфорт 1010.1 898.7
06 18.05 ЮЗ 4 8000 м 6/6 600 м
[]
+27.5 +5.1 24 +26 +30 жарко 1007.7 897.6 +7.5
09 18.05 Ю 4 15 км 9/9 600 м
[]
+25.5 +7.1 31 +25 +26 комфорт 1008.0 897.2
12 18.05 ЮЗ 3 20 км 5/5 600 м
[]
+20.1 +8.7 48 +22 +22 комфорт 1010.4 897.4
18 18.05 СВ 2 24 км ?/? +11.4 +9.8 90 +10 +10 1010.9 894.6 +27.9
21 18.05 СВ 2 22 км н/о +9.8 +8.7 93 +8 +8 1011.1 894.1
00 19.05 З 1 13 км 6/6 600 м
[]
+17.4 +8.8 57 +18 +23 1008.5 894.7
03 19.05 Ю 5 22 км 8/8 600 м
[]
+22.2 +8.7 42 +24 +26 комфорт 1005.8 894.0
06 19.05 Ю 5 25 км 9/9 600 м
[]
+20.1 +10.5 54 +21 +22 комфорт 1004.9 892.5 +9.7
09 19.05 Ю 4 26 км в посл. час ливневой дождь 10/10 600 м
[]
+17.1 +11.6 70 +17 +17 1004.0 890.6
12 19.05 Ю 3 29 км слаб. ливневой дождь 10/10 600 м
[]
+16.0 +12.2 78 +16 +16 1001.9 888.3 0.0
18 19.05 З 4 30 км ?/? +17.0 +11.3 69 +17 +17 993.3 881.1 +22.8
21 19.05 С 6 30 км в посл. час дождь н/о +14.2 +11.0 81 +12 +12 992.7 879.5
00 20.05 З 6 23 км 5/5
[]
+15.6 -2.8 28 +14 +16 992.4 879.8 0.1
03 20.05 З 7 28 км 8/8 600 м
[]
+14.5 -1.5 33 +13 +14 992.6 879.5
06 20.05 З 5
{17}
28 км 8/8 600 м
[]
+12.2 -0.3 42 +10 +12 995.3 881.1 +11.8
09 20.05 З 5
{17}
30 км слаб. ливневой дождь 10/10 600 м
[]
+10.8 +0.5 49 +8 +8 996.6 881.7
12 20.05 ЮЗ 3 30 км {ливн. осадки} 8/8 600 м
[]
+10.1 +2.0 57 +8 +8 998.7 883.3 0.0
18 20.05 С 2 28 км в посл. час дождь ?/? +6.6 +5.5 93 +4 +4 999.0 882.2 +17.1
21 20.05 С 1 12 км в посл. час дождь н/о +4.2 +4.1 99 +3 +3 999.3 881.5
00 21.05 Ю 2 27 км 8/8 600 м
[]
+12.2 +3.4 55 +12 +14 997.2 882.7 0.1
03 21.05 З 7 29 км {ливн. осадки} 9/9 600 м
[]
+15.2 -2.6 29 +14 +14 995.8 882.6
06 21.05 З 7
{22}
30 км {ливн. осадки} 8/8 600 м
[]
+15.2 -1.3 32 +14 +14 995.9 882.7 +4.0 0.1
09 21.05 З 4
{22}
30 км 6/6 600 м
[]
+15.0 -1.9 31 +14 +15 997.5 884.1
12 21.05 С 1
{18}
30 км {ливн. осадки} 8/8 600 м
[]
+9.1 +2.6 64 +9 +9 999.9 883.9

 

Местоположение метеостанции Чанбай (Гирин, Китай): широта 41.35 долгота 128.16 высота над уровнем моря 1018 м.

В архиве по умолчанию представлена погода в Чанбае за последнюю неделю. Архивные данные за месяц целиком и за предыдущие месяцы, начиная с января 2011 года, Вы можете получить, выбрав интересующий диапазон дат из раскрывающегося списка и нажав кнопку "Ввод!".


*Определитесь, кто Вы:
робот инопланетянин человек

Внимание! Время в таблицах - всемирное. Для получения местного времени необходимо прибавить поправку, которая равна 8 ч.

Смотрите также архив погоды в соседних городах и на ближайших метеорологических станциях:

Погода в Хесене (КНДР) (6 км)
Погода в Самджиёне (КНДР) (54 км)
Погода в Пунгсане (КНДР) (59 км)
Погода в Линьцзяне (Гирин, Китай) (112 км)
Погода в Кимчхэке (КНДР) (115 км)
Погода в Чунгане (КНДР) (117 км)
Погода в Джангджине (КНДР) (133 км)
Погода в Канге (КНДР) (137 км)
Погода в Чхонджине (КНДР) (145 км)
Погода в Синпхо (КНДР) (147 км)

Пояснения к столбцам:

Ветер - указаны скорость ветра в м/с - средняя за 10 мин, порывы в срок и между сроками (в фигурных скобках) и направление, откуда дует ветер: С - северный, СВ - северо-восточный, В - восточный, ЮВ - юго-восточный, Ю - южный, ЮЗ - юго-западный, З - западный, СЗ - северо-западный.
Видимость - горизонтальная дальность видимости в метрах или километрах. При видимости от 1 до 10 км при отсутствии осадков обычно наблюдается дымка, при ухудшении видимости до 1 км и менее - туман. В сухую погоду видимость может ухудшаться дымом, пылью или мглою.
Явления - указаны атмосферные явления, наблюдавшиеся в срок или в последний час перед сроком; фигурными скобками обозначены явления, наблюдавшиеся между сроками (за 1-3 часа до срока); квадратными скобками обозначены град или гололедные отложения с указанием их диаметра в мм.
Облачность - указаны через наклонную черту общая и нижняя облачность в баллах и высота нижней границы облаков в метрах; квадратными скобками обозначены формы облаков: Ci - перистые, Cs - перисто-слоистые, Cc - перисто-кучевые, Ac - высококучевые, As - высокослоистые, Sc - слоисто-кучевые, Ns - слоисто-дождевые, Cu - кучевые, Cb - кучево-дождевые. Подробнее классификацию облаков см. в Атласе облаков (PDF).
T - Температура воздуха - температура, измеренная на высоте 2 м над землей.
Td - Температура точки росы - температура, при понижении до которой содержащийся в воздухе водяной пар достигнет насыщения.
f - Относительная влажность воздуха - влажноcть воздуха, измеренная на высоте 2 м над землей.
Te - Эффективная температура - температура, которую ощущает одетый по сезону человек в тени. Характеристика душности погоды. При расчете учитывается влияние влажности воздуха и скорости ветра на теплоощущения человека.
Tes - Эффективная температура на солнце - температура, которую ощущает человек, с поправкой на солнечный нагрев. Характеристика знойности погоды. Зависит от высоты солнца над горизонтом, облачности и скорости ветра. Ночью, в пасмурную погоду, а также при ветре 12 м/с и более поправка равна нулю.
P - Атмосферное давление - приведенное к уровню моря атмосферное давление.
Po - Атмосферное давление - измеренное на уровне метеостанции атмосферное давление.
Tmin - Минимальная температура - минимум температуры воздуха на высоте 2 м над землей.
Tmax - Максимальная температура - максимум температуры воздуха на высоте 2 м над землей.
R - Количество осадков - Количество выпавших осадков за период времени, мм. При наведении курсора мыши на число - период времени, за который выпало указанное количество осадков.
R24 - Количество осадков - Количество выпавших осадков за 24 часа, мм.
S - Снежный покров - Высота снежного покрова, см. При наведении курсора мыши на число - состояние снежного покрова и степень покрытия местности в баллах.